Total_Precipitation_Accumulation
0.47 0.68 0.98 1.31 1.68 2.33 3.00 3.21 2.81 2.38 1.98 1.69 1.43 1.18 0.98 0.92 0.87 0.74 0.69 0.69 0.71 0.74 0.83 0.72 0.80 0.95 0.94 0.92 0.97 1.03 0.96 0.80 0.98 1.03 0.75 0.60 0.56 0.57 0.52 0.48 0.46 0.39 0.38
0.69 0.97 1.34 1.57 1.82 2.24 2.70 2.69 2.25 1.80 1.32 1.03 0.93 0.82 0.69 0.60 0.51 0.48 0.51 0.49 0.55 0.63 0.72 0.66 0.58 0.63 0.65 0.60 0.65 0.81 0.83 0.73 0.87 0.95 0.82 0.58 0.53 0.48 0.36 0.38 0.37 0.34 0.41
0.71 1.15 1.65 1.92 2.04 2.05 1.95 1.78 1.35 0.88 0.65 0.49 0.47 0.42 0.41 0.40 0.33 0.29 0.32 0.32 0.35 0.39 0.46 0.49 0.50 0.55 0.62 0.60 0.60 0.65 0.68 0.62 0.64 0.78 0.89 0.68 0.46 0.39 0.36 0.35 0.32 0.36 0.47
0.71 1.25 1.58 1.63 1.63 1.52 1.17 0.89 0.69 0.45 0.32 0.29 0.32 0.33 0.30 0.30 0.26 0.23 0.25 0.23 0.24 0.27 0.30 0.33 0.34 0.41 0.52 0.58 0.54 0.54 0.57 0.56 0.49 0.55 0.64 0.65 0.60 0.52 0.40 0.38 0.39 0.42 0.51
0.52 0.77 0.87 0.93 0.94 0.84 0.68 0.54 0.46 0.36 0.34 0.35 0.38 0.39 0.28 0.23 0.21 0.20 0.20 0.20 0.23 0.26 0.27 0.28 0.28 0.31 0.35 0.39 0.42 0.49 0.52 0.54 0.49 0.48 0.55 0.62 0.65 0.64 0.56 0.45 0.43 0.41 0.38
0.36 0.48 0.47 0.44 0.42 0.34 0.35 0.36 0.40 0.45 0.42 0.35 0.31 0.31 0.27 0.23 0.20 0.18 0.18 0.19 0.22 0.26 0.29 0.30 0.30 0.32 0.33 0.34 0.36 0.39 0.43 0.49 0.53 0.52 0.56 0.65 0.69 0.65 0.64 0.56 0.49 0.45 0.41
0.35 0.39 0.43 0.41 0.32 0.24 0.25 0.24 0.22 0.26 0.29 0.28 0.27 0.26 0.27 0.24 0.22 0.20 0.16 0.17 0.19 0.23 0.27 0.32 0.34 0.37 0.37 0.37 0.38 0.38 0.40 0.47 0.54 0.55 0.53 0.56 0.62 0.69 0.71 0.65 0.56 0.58 0.58
0.25 0.25 0.26 0.24 0.19 0.14 0.10 0.09 0.10 0.11 0.12 0.13 0.16 0.18 0.22 0.20 0.20 0.23 0.19 0.17 0.20 0.24 0.28 0.29 0.30 0.34 0.36 0.37 0.39 0.36 0.36 0.46 0.54 0.60 0.68 0.65 0.58 0.74 0.81 0.77 0.76 0.73 0.78
0.09 0.09 0.08 0.07 0.06 0.05 0.04 0.04 0.05 0.05 0.05 0.06 0.09 0.12 0.16 0.18 0.18 0.20 0.19 0.19 0.24 0.26 0.28 0.29 0.30 0.32 0.34 0.37 0.39 0.40 0.44 0.51 0.55 0.63 0.76 0.82 0.78 0.78 0.83 0.89 0.93 0.97 0.93
0.03 0.03 0.03 0.03 0.02 0.02 0.02 0.02 0.02 0.03 0.03 0.04 0.05 0.07 0.09 0.13 0.15 0.15 0.18 0.21 0.21 0.22 0.26 0.32 0.33 0.33 0.35 0.42 0.48 0.48 0.49 0.57 0.66 0.78 0.87 0.91 0.95 0.93 0.87 0.91 0.95 0.97 1.03
0.01 0.01 0.01 0.01 0.01 0.01 0.01 0.01 0.02 0.02 0.02 0.02 0.03 0.04 0.06 0.08 0.11 0.14 0.16 0.18 0.19 0.20 0.24 0.29 0.34 0.34 0.41 0.59 0.76 0.75 0.66 0.72 0.82 0.91 1.01 1.05 1.10 1.10 1.00 0.95 0.93 0.93 1.01
0.00 0.00 0.00 0.00 0.00 0.01 0.01 0.01 0.02 0.02 0.02 0.02 0.02 0.03 0.05 0.06 0.07 0.09 0.13 0.16 0.18 0.18 0.17 0.19 0.24 0.27 0.33 0.48 0.80 0.97 0.99 0.96 0.89 0.94 1.10 1.18 1.14 1.05 0.99 0.99 0.96 0.95 1.03
0.00 0.00 0.00 0.00 0.00 0.01 0.01 0.01 0.01 0.01 0.01 0.01 0.02 0.02 0.02 0.04 0.05 0.07 0.10 0.13 0.16 0.18 0.17 0.18 0.23 0.28 0.29 0.35 0.56 0.78 0.90 0.93 0.89 0.95 0.99 1.02 1.08 1.06 0.98 0.92 0.91 0.91 1.02
0.00 0.00 0.00 0.00 0.00 0.00 0.00 0.00 0.00 0.00 0.00 0.01 0.01 0.02 0.02 0.03 0.05 0.06 0.09 0.12 0.15 0.17 0.20 0.23 0.28 0.29 0.26 0.27 0.40 0.55 0.65 0.70 0.75 0.81 0.85 0.89 0.92 0.97 1.01 0.96 0.91 0.94 0.96
0.00 0.00 0.00 0.00 0.00 0.00 0.00 0.00 0.01 0.01 0.02 0.03 0.04 0.04 0.04 0.04 0.05 0.06 0.09 0.10 0.11 0.13 0.18 0.25 0.28 0.26 0.23 0.27 0.39 0.44 0.40 0.45 0.50 0.53 0.54 0.66 0.82 0.92 0.97 0.94 0.91 0.94 0.94
0.02 0.02 0.02 0.02 0.03 0.03 0.03 0.03 0.04 0.04 0.05 0.08 0.10 0.08 0.09 0.09 0.09 0.10 0.11 0.11 0.14 0.17 0.20 0.22 0.25 0.24 0.20 0.25 0.30 0.28 0.26 0.29 0.34 0.36 0.34 0.35 0.48 0.67 0.80 0.83 0.83 0.88 0.92
0.08 0.07 0.07 0.05 0.04 0.03 0.03 0.03 0.03 0.03 0.04 0.07 0.12 0.13 0.13 0.13 0.10 0.10 0.12 0.14 0.18 0.22 0.25 0.26 0.28 0.28 0.28 0.22 0.19 0.16 0.18 0.22 0.29 0.32 0.30 0.24 0.23 0.36 0.49 0.60 0.67 0.70 0.71
0.07 0.04 0.03 0.01 0.01 0.01 0.01 0.02 0.02 0.03 0.03 0.05 0.12 0.17 0.18 0.17 0.15 0.17 0.20 0.22 0.26 0.28 0.31 0.32 0.35 0.39 0.37 0.27 0.18 0.14 0.14 0.19 0.27 0.30 0.28 0.25 0.25 0.27 0.32 0.42 0.51 0.57 0.57
0.02 0.01 0.01 0.01 0.01 0.01 0.02 0.03 0.04 0.04 0.06 0.08 0.13 0.18 0.25 0.26 0.25 0.27 0.31 0.35 0.37 0.36 0.36 0.38 0.41 0.47 0.50 0.39 0.24 0.18 0.18 0.24 0.27 0.30 0.28 0.27 0.23 0.21 0.22 0.30 0.37 0.42 0.51
0.00 0.01 0.01 0.01 0.02 0.03 0.04 0.05 0.07 0.09 0.12 0.13 0.17 0.23 0.31 0.36 0.35 0.37 0.41 0.43 0.46 0.44 0.42 0.40 0.43 0.49 0.58 0.49 0.30 0.23 0.25 0.33 0.35 0.39 0.37 0.29 0.25 0.20 0.17 0.23 0.31 0.34 0.37
0.00 0.01 0.01 0.03 0.05 0.08 0.12 0.16 0.18 0.21 0.21 0.22 0.25 0.30 0.36 0.42 0.42 0.44 0.47 0.49 0.50 0.51 0.51 0.49 0.48 0.52 0.59 0.54 0.35 0.28 0.33 0.43 0.48 0.45 0.43 0.38 0.27 0.21 0.17 0.18 0.26 0.28 0.34
0.00 0.01 0.03 0.03 0.05 0.11 0.18 0.24 0.26 0.26 0.28 0.32 0.33 0.36 0.42 0.44 0.43 0.54 0.60 0.65 0.66 0.63 0.60 0.64 0.61 0.58 0.59 0.55 0.42 0.30 0.30 0.43 0.59 0.61 0.56 0.51 0.38 0.25 0.22 0.19 0.20 0.22 0.27
0.00 0.01 0.02 0.04 0.06 0.10 0.16 0.22 0.24 0.26 0.28 0.31 0.33 0.38 0.47 0.53 0.57 0.64 0.68 0.76 0.80 0.78 0.73 0.73 0.77 0.72 0.68 0.65 0.48 0.37 0.30 0.38 0.56 0.71 0.70 0.59 0.46 0.36 0.29 0.27 0.25 0.23 0.24
0.00 0.01 0.03 0.06 0.07 0.09 0.12 0.17 0.24 0.31 0.35 0.36 0.37 0.40 0.47 0.54 0.66 0.76 0.77 0.78 0.82 0.84 0.83 0.80 0.77 0.77 0.77 0.80 0.67 0.51 0.38 0.41 0.56 0.69 0.72 0.64 0.59 0.52 0.43 0.38 0.35 0.30 0.27
0.02 0.04 0.08 0.10 0.10 0.10 0.11 0.13 0.20 0.32 0.39 0.39 0.38 0.42 0.48 0.55 0.68 0.82 0.84 0.75 0.76 0.79 0.75 0.71 0.68 0.70 0.71 0.76 0.71 0.62 0.59 0.61 0.70 0.81 0.92 0.87 0.78 0.71 0.63 0.55 0.49 0.44 0.38
0.06 0.10 0.13 0.14 0.13 0.13 0.14 0.15 0.21 0.33 0.42 0.43 0.40 0.43 0.48 0.56 0.66 0.79 0.85 0.70 0.56 0.54 0.55 0.49 0.44 0.43 0.47 0.57 0.60 0.55 0.53 0.57 0.68 0.84 1.01 0.96 0.86 0.80 0.75 0.69 0.62 0.56 0.50